Location: *
(37.4917°N, 71.5558°E)
Time: 09:03:44
(UTC+00:00)

deb Chang Zheng 4 - Pass Details

Date: 09 April 2020
Orbit: 605 x 626 km, 98.6° (Epoch: 03 June)

Event Time Altitude Azimuth Distance (km) Brightness Sun altitude
Rises 23:02:49 0° 8° (N) 2,902 7.5 -20.1°
Reaches altitude 10° 23:05:02 10° 4° (N) 1,995 6.6 -19.7°
Maximum altitude 23:09:16 55° 287° (WNW) 748 3.7 -19.0°
Enters shadow 23:10:26 41° 235° (SW) 902 3.9 -18.8°
